Time,TemperatureF,DewpointF,PressureIn,WindDirection,WindDirectionDegrees,WindSpeedMPH,WindSpeedGustMPH,Humidity,HourlyPrecipIn,Conditions,Clouds,dailyrainin,SoftwareType,DateUTC
2013-05-23 00:02:00,51.4,43.8,29.99,North,0,0.0,0.0,75,0.00,,,0.00,WUHU21623XXSP,2013-05-23 05:02:00,
2013-05-23 00:07:00,51.3,43.6,29.99,North,0,0.0,0.0,75,0.00,,,0.00,WUHU21623XXSP,2013-05-23 05:07:00,
2013-05-23 00:12:00,51.1,43.4,29.99,North,0,0.0,0.0,75,0.00,,,0.00,WUHU21623XXSP,2013-05-23 05:12:00,
2013-05-23 00:17:00,51.1,43.8,30.00,North,0,0.0,0.0,76,0.00,,,0.00,WUHU21623XXSP,2013-05-23 05:17:00,
2013-05-23 00:22:00,50.9,43.6,30.00,North,0,0.0,0.0,76,0.00,,,0.00,WUHU21623XXSP,2013-05-23 05:22:00,
2013-05-23 00:27:00,50.7,43.4,30.00,North,0,0.0,0.0,76,0.00,,,0.00,WUHU21623XXSP,2013-05-23 05:27:00,
2013-05-23 00:32:00,50.7,43.4,30.00,North,0,0.0,0.0,76,0.00,,,0.00,WUHU21623XXSP,2013-05-23 05:32:00,
2013-05-23 00:37:00,50.5,43.2,30.00,North,0,0.0,0.0,76,0.00,,,0.00,WUHU21623XXSP,2013-05-23 05:37:00,
2013-05-23 00:42:00,50.4,43.4,30.00,North,0,0.0,0.0,77,0.00,,,0.00,WUHU21623XXSP,2013-05-23 05:42:00,
2013-05-23 00:47:00,50.4,43.4,30.00,North,0,0.0,0.0,77,0.00,,,0.00,WUHU21623XXSP,2013-05-23 05:47:00,
2013-05-23 00:52:00,50.2,43.6,30.01,North,0,0.0,0.0,78,0.00,,,0.00,WUHU21623XXSP,2013-05-23 05:52:00,
2013-05-23 00:57:00,50.0,43.4,30.00,North,0,0.0,0.0,78,0.00,,,0.00,WUHU21623XXSP,2013-05-23 05:57:00,
2013-05-23 01:02:00,49.8,43.2,30.00,North,0,0.0,0.0,78,0.00,,,0.00,WUHU21623XXSP,2013-05-23 06:02:00,
2013-05-23 01:07:00,49.8,43.2,30.01,North,0,0.0,0.0,78,0.00,,,0.00,WUHU21623XXSP,2013-05-23 06:07:00,
2013-05-23 01:12:00,49.6,43.4,30.01,North,0,0.0,0.0,79,0.00,,,0.00,WUHU21623XXSP,2013-05-23 06:12:00,
2013-05-23 01:17:00,49.5,43.2,30.01,North,0,0.0,0.0,79,0.00,,,0.00,WUHU21623XXSP,2013-05-23 06:17:00,
2013-05-23 01:22:00,49.3,43.3,30.01,North,0,0.0,0.0,80,0.00,,,0.00,WUHU21623XXSP,2013-05-23 06:22:00,
2013-05-23 01:27:00,49.1,43.2,30.01,North,0,0.0,0.0,80,0.00,,,0.00,WUHU21623XXSP,2013-05-23 06:27:00,
2013-05-23 01:32:00,48.7,42.8,30.01,North,0,0.0,0.0,80,0.00,,,0.00,WUHU21623XXSP,2013-05-23 06:32:00,
2013-05-23 01:37:00,48.7,43.1,30.02,North,0,0.0,0.0,81,0.00,,,0.00,WUHU21623XXSP,2013-05-23 06:37:00,
2013-05-23 01:42:00,48.4,42.7,30.02,North,0,0.0,0.0,81,0.00,,,0.00,WUHU21623XXSP,2013-05-23 06:42:00,
2013-05-23 01:47:00,48.2,42.6,30.02,North,0,0.0,0.0,81,0.00,,,0.00,WUHU21623XXSP,2013-05-23 06:47:00,
2013-05-23 01:52:00,48.0,42.7,30.03,North,0,0.0,0.0,82,0.00,,,0.00,WUHU21623XXSP,2013-05-23 06:52:00,
2013-05-23 01:57:00,47.8,42.6,30.03,North,0,0.0,0.0,82,0.00,,,0.00,WUHU21623XXSP,2013-05-23 06:57:00,
2013-05-23 02:02:00,47.7,42.4,30.03,North,0,0.0,0.0,82,0.00,,,0.00,WUHU21623XXSP,2013-05-23 07:02:00,
2013-05-23 02:07:00,47.5,42.2,30.03,North,0,0.0,0.0,82,0.00,,,0.00,WUHU21623XXSP,2013-05-23 07:07:00,
2013-05-23 02:12:00,47.3,42.4,30.03,North,0,0.0,0.0,83,0.00,,,0.00,WUHU21623XXSP,2013-05-23 07:12:00,
2013-05-23 02:17:00,47.1,42.2,30.04,North,0,0.0,0.0,83,0.00,,,0.00,WUHU21623XXSP,2013-05-23 07:17:00,
2013-05-23 02:22:00,47.1,42.2,30.04,North,0,0.0,0.0,83,0.00,,,0.00,WUHU21623XXSP,2013-05-23 07:22:00,
2013-05-23 02:27:00,46.9,42.4,30.05,North,0,0.0,0.0,84,0.00,,,0.00,WUHU21623XXSP,2013-05-23 07:27:00,
2013-05-23 02:32:00,46.8,42.2,30.05,North,0,0.0,0.0,84,0.00,,,0.00,WUHU21623XXSP,2013-05-23 07:32:00,
2013-05-23 02:37:00,46.8,42.2,30.05,North,0,0.0,0.0,84,0.00,,,0.00,WUHU21623XXSP,2013-05-23 07:37:00,
2013-05-23 02:42:00,46.6,42.3,30.05,North,0,0.0,0.0,85,0.00,,,0.00,WUHU21623XXSP,2013-05-23 07:42:00,
2013-05-23 02:47:00,46.8,42.5,30.05,North,0,0.0,0.0,85,0.00,,,0.00,WUHU21623XXSP,2013-05-23 07:47:00,
2013-05-23 02:52:00,46.8,42.5,30.06,North,0,0.0,0.0,85,0.00,,,0.00,WUHU21623XXSP,2013-05-23 07:52:00,
2013-05-23 02:57:00,46.8,42.5,30.06,North,0,0.0,0.0,85,0.00,,,0.00,WUHU21623XXSP,2013-05-23 07:57:00,
2013-05-23 03:02:00,46.6,42.3,30.06,North,0,0.0,0.0,85,0.00,,,0.00,WUHU21623XXSP,2013-05-23 08:02:00,
2013-05-23 03:07:00,46.6,42.3,30.06,North,0,0.0,0.0,85,0.00,,,0.00,WUHU21623XXSP,2013-05-23 08:07:00,
2013-05-23 03:12:00,46.6,42.0,30.06,North,0,0.0,0.0,84,0.00,,,0.00,WUHU21623XXSP,2013-05-23 08:12:00,
2013-05-23 03:17:00,46.6,42.0,30.06,North,0,0.0,0.0,84,0.00,,,0.00,WUHU21623XXSP,2013-05-23 08:17:00,
2013-05-23 03:22:00,46.6,42.0,30.06,North,0,0.0,0.0,84,0.00,,,0.00,WUHU21623XXSP,2013-05-23 08:22:00,
2013-05-23 03:27:00,46.6,42.3,30.07,North,0,0.0,0.0,85,0.00,,,0.00,WUHU21623XXSP,2013-05-23 08:27:00,
2013-05-23 03:32:00,46.6,42.0,30.07,North,0,0.0,0.0,84,0.00,,,0.00,WUHU21623XXSP,2013-05-23 08:32:00,
2013-05-23 03:37:00,46.4,41.9,30.07,North,0,0.0,0.0,84,0.00,,,0.00,WUHU21623XXSP,2013-05-23 08:37:00,
2013-05-23 03:42:00,46.2,41.7,30.08,North,0,0.0,0.0,84,0.00,,,0.00,WUHU21623XXSP,2013-05-23 08:42:00,
2013-05-23 03:47:00,46.2,41.7,30.08,North,0,0.0,0.0,84,0.00,,,0.00,WUHU21623XXSP,2013-05-23 08:47:00,
2013-05-23 03:52:00,46.2,41.7,30.08,North,0,0.0,0.0,84,0.00,,,0.00,WUHU21623XXSP,2013-05-23 08:52:00,
2013-05-23 03:57:00,46.0,41.5,30.08,North,0,0.0,0.0,84,0.00,,,0.00,WUHU21623XXSP,2013-05-23 08:57:00,
2013-05-23 04:02:00,46.0,41.8,30.09,North,0,0.0,0.0,85,0.00,,,0.00,WUHU21623XXSP,2013-05-23 09:02:00,
2013-05-23 04:07:00,46.0,41.8,30.09,North,0,0.0,0.0,85,0.00,,,0.00,WUHU21623XXSP,2013-05-23 09:07:00,
2013-05-23 04:12:00,45.7,41.5,30.09,North,0,0.0,0.0,85,0.00,,,0.00,WUHU21623XXSP,2013-05-23 09:12:00,
2013-05-23 04:17:00,45.7,41.1,30.10,North,0,0.0,0.0,84,0.00,,,0.00,WUHU21623XXSP,2013-05-23 09:17:00,
2013-05-23 04:22:00,45.7,41.1,30.10,North,0,0.0,0.0,84,0.00,,,0.00,WUHU21623XXSP,2013-05-23 09:22:00,
2013-05-23 04:27:00,45.5,41.0,30.10,North,0,0.0,0.0,84,0.00,,,0.00,WUHU21623XXSP,2013-05-23 09:27:00,
2013-05-23 04:32:00,45.5,41.0,30.10,North,0,0.0,0.0,84,0.00,,,0.00,WUHU21623XXSP,2013-05-23 09:32:00,
2013-05-23 04:37:00,45.3,40.8,30.10,North,0,0.0,0.0,84,0.00,,,0.00,WUHU21623XXSP,2013-05-23 09:37:00,
2013-05-23 04:42:00,45.1,40.6,30.11,North,0,0.0,0.0,84,0.00,,,0.00,WUHU21623XXSP,2013-05-23 09:42:00,
2013-05-23 04:47:00,45.1,40.6,30.11,North,0,0.0,0.0,84,0.00,,,0.00,WUHU21623XXSP,2013-05-23 09:47:00,
2013-05-23 04:52:00,45.1,40.6,30.11,North,0,0.0,0.0,84,0.00,,,0.00,WUHU21623XXSP,2013-05-23 09:52:00,
2013-05-23 04:57:00,45.0,40.4,30.11,North,0,0.0,0.0,84,0.00,,,0.00,WUHU21623XXSP,2013-05-23 09:57:00,
2013-05-23 05:02:00,45.0,40.1,30.11,North,0,0.0,0.0,83,0.00,,,0.00,WUHU21623XXSP,2013-05-23 10:02:00,
2013-05-23 05:07:00,44.8,39.9,30.12,North,0,0.0,0.0,83,0.00,,,0.00,WUHU21623XXSP,2013-05-23 10:07:00,
2013-05-23 05:12:00,44.8,39.9,30.12,North,0,0.0,0.0,83,0.00,,,0.00,WUHU21623XXSP,2013-05-23 10:12:00,
2013-05-23 05:17:00,44.8,39.9,30.12,North,0,0.0,0.0,83,0.00,,,0.00,WUHU21623XXSP,2013-05-23 10:17:00,
2013-05-23 05:22:00,44.8,39.9,30.13,North,0,0.0,0.0,83,0.00,,,0.00,WUHU21623XXSP,2013-05-23 10:22:00,
2013-05-23 05:27:00,44.6,39.5,30.13,North,0,0.0,0.0,82,0.00,,,0.00,WUHU21623XXSP,2013-05-23 10:27:00,
2013-05-23 05:32:00,44.6,39.5,30.13,North,0,0.0,0.0,82,0.00,,,0.00,WUHU21623XXSP,2013-05-23 10:32:00,
2013-05-23 05:37:00,44.4,39.3,30.14,North,0,0.0,0.0,82,0.00,,,0.00,WUHU21623XXSP,2013-05-23 10:37:00,
2013-05-23 05:42:00,44.4,39.3,30.14,North,0,0.0,0.0,82,0.00,,,0.00,WUHU21623XXSP,2013-05-23 10:42:00,
2013-05-23 05:47:00,44.4,39.3,30.14,North,0,0.0,0.0,82,0.00,,,0.00,WUHU21623XXSP,2013-05-23 10:47:00,
2013-05-23 05:52:00,44.4,39.3,30.14,North,0,0.0,0.0,82,0.00,,,0.00,WUHU21623XXSP,2013-05-23 10:52:00,
2013-05-23 05:57:00,44.4,39.0,30.14,North,0,0.0,0.0,81,0.00,,,0.00,WUHU21623XXSP,2013-05-23 10:57:00,
2013-05-23 06:02:00,44.2,38.8,30.14,North,0,0.0,0.0,81,0.00,,,0.00,WUHU21623XXSP,2013-05-23 11:02:00,
2013-05-23 06:07:00,44.2,38.8,30.14,North,0,0.0,0.0,81,0.00,,,0.00,WUHU21623XXSP,2013-05-23 11:07:00,
2013-05-23 06:12:00,44.2,38.5,30.14,North,0,0.0,0.0,80,0.00,,,0.00,WUHU21623XXSP,2013-05-23 11:12:00,
2013-05-23 06:17:00,44.2,38.5,30.16,North,0,0.0,0.0,80,0.00,,,0.00,WUHU21623XXSP,2013-05-23 11:17:00,
2013-05-23 06:22:00,44.2,38.1,30.16,North,0,0.0,0.0,79,0.00,,,0.00,WUHU21623XXSP,2013-05-23 11:22:00,
2013-05-23 06:27:00,44.4,38.3,30.16,North,0,0.0,0.0,79,0.00,,,0.00,WUHU21623XXSP,2013-05-23 11:27:00,
2013-05-23 06:32:00,44.4,38.3,30.16,North,0,0.0,0.0,79,0.00,,,0.00,WUHU21623XXSP,2013-05-23 11:32:00,
2013-05-23 06:37:00,44.4,38.3,30.16,North,0,0.0,0.0,79,0.00,,,0.00,WUHU21623XXSP,2013-05-23 11:37:00,
2013-05-23 06:42:00,44.4,37.6,30.17,North,0,0.0,0.0,77,0.00,,,0.00,WUHU21623XXSP,2013-05-23 11:42:00,
2013-05-23 06:47:00,44.8,38.3,30.17,North,0,0.0,0.0,78,0.00,,,0.00,WUHU21623XXSP,2013-05-23 11:47:00,
2013-05-23 06:52:00,44.8,38.3,30.17,North,0,0.0,0.0,78,0.00,,,0.00,WUHU21623XXSP,2013-05-23 11:52:00,
2013-05-23 06:57:00,45.0,38.2,30.18,North,0,0.0,0.0,77,0.00,,,0.00,WUHU21623XXSP,2013-05-23 11:57:00,
2013-05-23 07:02:00,45.0,38.2,30.18,North,0,0.0,0.0,77,0.00,,,0.00,WUHU21623XXSP,2013-05-23 12:02:00,
2013-05-23 07:07:00,45.1,38.0,30.18,North,0,0.0,0.0,76,0.00,,,0.00,WUHU21623XXSP,2013-05-23 12:07:00,
2013-05-23 07:12:00,45.1,37.7,30.18,North,0,0.0,0.0,75,0.00,,,0.00,WUHU21623XXSP,2013-05-23 12:12:00,
2013-05-23 07:17:00,45.1,37.7,30.18,North,0,0.0,0.0,75,0.00,,,0.00,WUHU21623XXSP,2013-05-23 12:17:00,
2013-05-23 07:22:00,45.3,37.9,30.18,North,0,0.0,0.0,75,0.00,,,0.00,WUHU21623XXSP,2013-05-23 12:22:00,
2013-05-23 07:27:00,45.5,37.7,30.19,North,0,0.0,0.0,74,0.00,,,0.00,WUHU21623XXSP,2013-05-23 12:27:00,
2013-05-23 07:32:00,45.5,37.3,30.19,North,0,0.0,0.0,73,0.00,,,0.00,WUHU21623XXSP,2013-05-23 12:32:00,
2013-05-23 07:37:00,45.7,37.5,30.19,North,0,0.0,0.0,73,0.00,,,0.00,WUHU21623XXSP,2013-05-23 12:37:00,
2013-05-23 07:42:00,45.7,37.2,30.19,North,0,0.0,0.0,72,0.00,,,0.00,WUHU21623XXSP,2013-05-23 12:42:00,
2013-05-23 07:47:00,46.0,37.9,30.19,North,0,0.0,0.0,73,0.00,,,0.00,WUHU21623XXSP,2013-05-23 12:47:00,
2013-05-23 07:52:00,46.2,38.1,30.20,North,0,0.0,0.0,73,0.00,,,0.00,WUHU21623XXSP,2013-05-23 12:52:00,
2013-05-23 07:57:00,46.2,37.4,30.20,North,0,0.0,0.0,71,0.00,,,0.00,WUHU21623XXSP,2013-05-23 12:57:00,
2013-05-23 08:02:00,46.6,37.7,30.20,North,0,0.0,0.0,71,0.00,,,0.00,WUHU21623XXSP,2013-05-23 13:02:00,
2013-05-23 08:07:00,46.6,37.7,30.20,North,0,0.0,0.0,71,0.00,,,0.00,WUHU21623XXSP,2013-05-23 13:07:00,
2013-05-23 08:12:00,46.8,37.5,30.21,North,0,0.0,0.0,70,0.00,,,0.00,WUHU21623XXSP,2013-05-23 13:12:00,
2013-05-23 08:17:00,46.9,37.7,30.21,North,0,0.0,0.0,70,0.00,,,0.00,WUHU21623XXSP,2013-05-23 13:17:00,
2013-05-23 08:22:00,46.9,37.3,30.21,North,0,0.0,0.0,69,0.00,,,0.00,WUHU21623XXSP,2013-05-23 13:22:00,
2013-05-23 08:27:00,47.1,37.1,30.21,North,0,0.0,0.0,68,0.00,,,0.00,WUHU21623XXSP,2013-05-23 13:27:00,
2013-05-23 08:32:00,47.1,37.1,30.22,North,0,0.0,0.0,68,0.00,,,0.00,WUHU21623XXSP,2013-05-23 13:32:00,
2013-05-23 08:37:00,47.3,36.5,30.21,North,0,0.0,0.0,66,0.00,,,0.00,WUHU21623XXSP,2013-05-23 13:37:00,
2013-05-23 08:42:00,47.7,37.2,30.22,North,0,0.0,0.0,67,0.00,,,0.00,WUHU21623XXSP,2013-05-23 13:42:00,
2013-05-23 08:47:00,47.8,37.0,30.22,North,0,0.0,0.0,66,0.00,,,0.00,WUHU21623XXSP,2013-05-23 13:47:00,
2013-05-23 08:52:00,48.0,36.8,30.22,North,0,0.0,0.0,65,0.00,,,0.00,WUHU21623XXSP,2013-05-23 13:52:00,
2013-05-23 08:57:00,48.0,36.4,30.21,North,0,0.0,0.0,64,0.00,,,0.00,WUHU21623XXSP,2013-05-23 13:57:00,
2013-05-23 09:02:00,48.4,37.1,30.22,North,0,0.0,0.0,65,0.00,,,0.00,WUHU21623XXSP,2013-05-23 14:02:00,
2013-05-23 09:07:00,48.7,37.5,30.22,North,0,0.0,0.0,65,0.00,,,0.00,WUHU21623XXSP,2013-05-23 14:07:00,
2013-05-23 09:12:00,48.9,37.2,30.22,North,0,0.0,0.0,64,0.00,,,0.00,WUHU21623XXSP,2013-05-23 14:12:00,
2013-05-23 09:17:00,48.9,37.2,30.22,North,0,0.0,0.0,64,0.00,,,0.00,WUHU21623XXSP,2013-05-23 14:17:00,
2013-05-23 09:22:00,49.1,37.0,30.22,North,0,0.0,0.0,63,0.00,,,0.00,WUHU21623XXSP,2013-05-23 14:22:00,
2013-05-23 09:27:00,49.5,37.4,30.23,North,0,0.0,0.0,63,0.00,,,0.00,WUHU21623XXSP,2013-05-23 14:27:00,
2013-05-23 09:32:00,49.6,37.5,30.23,North,0,0.0,0.0,62,0.00,,,0.00,WUHU21623XXSP,2013-05-23 14:32:00,
2013-05-23 09:37:00,49.6,36.7,30.23,North,0,0.0,0.0,61,0.00,,,0.00,WUHU21623XXSP,2013-05-23 14:37:00,
2013-05-23 09:42:00,49.8,36.9,30.23,North,0,0.0,0.0,61,0.00,,,0.00,WUHU21623XXSP,2013-05-23 14:42:00,
2013-05-23 09:47:00,49.8,36.9,30.23,North,0,0.0,0.0,61,0.00,,,0.00,WUHU21623XXSP,2013-05-23 14:47:00,
2013-05-23 09:52:00,49.8,36.9,30.23,North,0,0.0,0.0,61,0.00,,,0.00,WUHU21623XXSP,2013-05-23 14:52:00,
2013-05-23 09:57:00,50.4,37.4,30.23,North,0,0.0,0.0,61,0.00,,,0.00,WUHU21623XXSP,2013-05-23 14:57:00,
2013-05-23 10:02:00,50.5,37.2,30.24,North,0,0.0,0.0,60,0.00,,,0.00,WUHU21623XXSP,2013-05-23 15:02:00,
2013-05-23 10:07:00,50.7,37.3,30.24,North,0,0.0,0.0,60,0.00,,,0.00,WUHU21623XXSP,2013-05-23 15:07:00,
2013-05-23 10:12:00,51.1,37.2,30.23,North,0,0.0,0.0,59,0.00,,,0.00,WUHU21623XXSP,2013-05-23 15:12:00,
2013-05-23 10:17:00,51.3,37.4,30.24,North,0,0.0,0.0,59,0.00,,,0.00,WUHU21623XXSP,2013-05-23 15:17:00,
2013-05-23 10:22:00,51.4,37.1,30.24,North,0,0.0,0.0,58,0.00,,,0.00,WUHU21623XXSP,2013-05-23 15:22:00,
2013-05-23 10:27:00,51.8,38.3,30.24,North,0,0.0,0.0,60,0.00,,,0.00,WUHU21623XXSP,2013-05-23 15:27:00,
2013-05-23 10:32:00,52.2,38.2,30.24,North,0,0.0,0.0,59,0.00,,,0.00,WUHU21623XXSP,2013-05-23 15:32:00,
2013-05-23 10:37:00,52.3,37.5,30.24,North,0,0.0,0.0,57,0.00,,,0.00,WUHU21623XXSP,2013-05-23 15:37:00,
2013-05-23 10:42:00,52.2,36.8,30.24,North,0,0.0,0.0,56,0.00,,,0.00,WUHU21623XXSP,2013-05-23 15:42:00,
2013-05-23 10:47:00,52.3,37.5,30.24,North,0,0.0,0.0,57,0.00,,,0.00,WUHU21623XXSP,2013-05-23 15:47:00,
2013-05-23 10:52:00,52.3,37.5,30.24,North,0,0.0,0.0,57,0.00,,,0.00,WUHU21623XXSP,2013-05-23 15:52:00,
2013-05-23 10:57:00,52.5,37.2,30.25,North,0,0.0,0.0,56,0.00,,,0.00,WUHU21623XXSP,2013-05-23 15:57:00,
2013-05-23 11:02:00,52.9,38.0,30.24,North,0,0.0,0.0,57,0.00,,,0.00,WUHU21623XXSP,2013-05-23 16:02:00,
2013-05-23 11:07:00,53.2,38.8,30.24,North,0,0.0,0.0,58,0.00,,,0.00,WUHU21623XXSP,2013-05-23 16:07:00,
2013-05-23 11:12:00,53.4,38.0,30.25,North,0,0.0,0.0,56,0.00,,,0.00,WUHU21623XXSP,2013-05-23 16:12:00,
2013-05-23 11:17:00,53.4,38.0,30.24,North,0,0.0,0.0,56,0.00,,,0.00,WUHU21623XXSP,2013-05-23 16:17:00,
2013-05-23 11:23:00,53.8,38.4,30.25,North,0,0.0,0.0,56,0.00,,,0.00,WUHU21623XXSP,2013-05-23 16:23:00,
2013-05-23 11:28:00,54.1,38.2,30.25,North,0,0.0,0.0,55,0.00,,,0.00,WUHU21623XXSP,2013-05-23 16:28:00,
2013-05-23 11:33:00,54.3,37.9,30.25,North,0,0.0,0.0,54,0.00,,,0.00,WUHU21623XXSP,2013-05-23 16:33:00,
2013-05-23 11:38:00,54.3,37.9,30.25,North,0,0.0,0.0,54,0.00,,,0.00,WUHU21623XXSP,2013-05-23 16:38:00,
2013-05-23 11:43:00,54.3,37.9,30.25,North,0,0.0,0.0,54,0.00,,,0.00,WUHU21623XXSP,2013-05-23 16:43:00,
2013-05-23 11:48:00,54.3,37.5,30.25,North,0,0.0,0.0,53,0.00,,,0.00,WUHU21623XXSP,2013-05-23 16:48:00,
2013-05-23 11:53:00,54.5,38.1,30.25,North,0,0.0,0.0,54,0.00,,,0.00,WUHU21623XXSP,2013-05-23 16:53:00,
2013-05-23 11:58:00,54.5,38.1,30.25,North,0,0.0,0.0,54,0.00,,,0.00,WUHU21623XXSP,2013-05-23 16:58:00,
2013-05-23 12:03:00,55.0,39.1,30.25,North,0,0.0,0.0,55,0.00,,,0.00,WUHU21623XXSP,2013-05-23 17:03:00,
2013-05-23 12:08:00,55.2,38.3,30.25,North,0,0.0,0.0,53,0.00,,,0.00,WUHU21623XXSP,2013-05-23 17:08:00,
2013-05-23 12:13:00,55.2,38.3,30.25,North,0,0.0,0.0,53,0.00,,,0.00,WUHU21623XXSP,2013-05-23 17:13:00,
2013-05-23 12:18:00,55.6,38.6,30.26,North,0,0.0,0.0,53,0.00,,,0.00,WUHU21623XXSP,2013-05-23 17:18:00,
2013-05-23 12:23:00,55.6,38.2,30.25,North,0,0.0,0.0,52,0.00,,,0.00,WUHU21623XXSP,2013-05-23 17:23:00,
2013-05-23 12:28:00,55.9,39.0,30.25,North,0,0.0,0.0,53,0.00,,,0.00,WUHU21623XXSP,2013-05-23 17:28:00,
2013-05-23 12:33:00,56.1,39.2,30.25,North,0,0.0,0.0,53,0.00,,,0.00,WUHU21623XXSP,2013-05-23 17:33:00,
2013-05-23 12:38:00,56.5,39.1,30.26,North,0,0.0,0.0,52,0.00,,,0.00,WUHU21623XXSP,2013-05-23 17:38:00,
2013-05-23 12:43:00,56.7,39.2,30.26,North,0,0.0,0.0,52,0.00,,,0.00,WUHU21623XXSP,2013-05-23 17:43:00,
2013-05-23 12:48:00,56.8,38.9,30.25,North,0,0.0,0.0,51,0.00,,,0.00,WUHU21623XXSP,2013-05-23 17:48:00,
2013-05-23 12:53:00,57.0,38.7,30.26,North,0,0.0,0.0,50,0.00,,,0.00,WUHU21623XXSP,2013-05-23 17:53:00,
2013-05-23 12:58:00,57.2,38.8,30.26,North,0,0.0,0.0,50,0.00,,,0.00,WUHU21623XXSP,2013-05-23 17:58:00,
2013-05-23 13:03:00,57.4,38.4,30.26,North,0,0.0,0.0,49,0.00,,,0.00,WUHU21623XXSP,2013-05-23 18:03:00,
2013-05-23 13:08:00,57.6,38.6,30.26,North,0,0.0,0.0,49,0.00,,,0.00,WUHU21623XXSP,2013-05-23 18:08:00,
2013-05-23 13:13:00,57.6,37.4,30.26,North,0,0.0,0.0,47,0.00,,,0.00,WUHU21623XXSP,2013-05-23 18:13:00,
2013-05-23 13:18:00,57.7,38.2,30.26,North,0,0.0,0.0,48,0.00,,,0.00,WUHU21623XXSP,2013-05-23 18:18:00,
2013-05-23 13:23:00,57.9,38.3,30.26,North,0,0.0,0.0,48,0.00,,,0.00,WUHU21623XXSP,2013-05-23 18:23:00,
2013-05-23 13:28:00,58.3,38.7,30.26,North,0,0.0,0.0,48,0.00,,,0.00,WUHU21623XXSP,2013-05-23 18:28:00,
2013-05-23 13:33:00,58.5,38.2,30.26,North,0,0.0,0.0,47,0.00,,,0.00,WUHU21623XXSP,2013-05-23 18:33:00,
2013-05-23 13:38:00,58.8,37.4,30.26,North,0,0.0,0.0,45,0.00,,,0.00,WUHU21623XXSP,2013-05-23 18:38:00,
2013-05-23 13:43:00,58.8,37.4,30.27,North,0,0.0,0.0,45,0.00,,,0.00,WUHU21623XXSP,2013-05-23 18:43:00,
2013-05-23 13:48:00,58.8,38.0,30.26,North,0,0.0,0.0,46,0.00,,,0.00,WUHU21623XXSP,2013-05-23 18:48:00,
2013-05-23 13:53:00,58.8,38.0,30.26,North,0,0.0,0.0,46,0.00,,,0.00,WUHU21623XXSP,2013-05-23 18:53:00,
2013-05-23 13:58:00,59.4,38.5,30.26,North,0,0.0,0.0,46,0.00,,,0.00,WUHU21623XXSP,2013-05-23 18:58:00,
2013-05-23 14:03:00,59.5,39.2,30.26,North,0,0.0,0.0,47,0.00,,,0.00,WUHU21623XXSP,2013-05-23 19:03:00,
2013-05-23 14:08:00,59.7,37.7,30.26,North,0,0.0,0.0,44,0.00,,,0.00,WUHU21623XXSP,2013-05-23 19:08:00,
2013-05-23 14:13:00,59.9,37.8,30.26,North,0,0.0,0.0,44,0.00,,,0.00,WUHU21623XXSP,2013-05-23 19:13:00,
2013-05-23 14:18:00,60.1,38.0,30.26,North,0,0.0,0.0,44,0.00,,,0.00,WUHU21623XXSP,2013-05-23 19:18:00,
2013-05-23 14:23:00,60.4,38.9,30.26,North,0,0.0,0.0,45,0.00,,,0.00,WUHU21623XXSP,2013-05-23 19:23:00,
2013-05-23 14:28:00,60.4,38.3,30.25,North,0,0.0,0.0,44,0.00,,,0.00,WUHU21623XXSP,2013-05-23 19:28:00,
2013-05-23 14:33:00,60.4,37.7,30.25,North,0,0.0,0.0,43,0.00,,,0.00,WUHU21623XXSP,2013-05-23 19:33:00,
2013-05-23 14:38:00,60.6,37.9,30.26,North,0,0.0,0.0,43,0.00,,,0.00,WUHU21623XXSP,2013-05-23 19:38:00,
2013-05-23 14:43:00,61.2,38.4,30.25,North,0,0.0,0.0,43,0.00,,,0.00,WUHU21623XXSP,2013-05-23 19:43:00,
2013-05-23 14:48:00,61.2,38.4,30.25,North,0,0.0,0.0,43,0.00,,,0.00,WUHU21623XXSP,2013-05-23 19:48:00,
2013-05-23 14:53:00,61.5,39.8,30.25,North,0,0.0,0.0,45,0.00,,,0.00,WUHU21623XXSP,2013-05-23 19:53:00,
2013-05-23 14:58:00,61.7,38.9,30.25,North,0,0.0,0.0,43,0.00,,,0.00,WUHU21623XXSP,2013-05-23 19:58:00,
2013-05-23 15:03:00,61.9,38.4,30.25,North,0,0.0,0.0,42,0.00,,,0.00,WUHU21623XXSP,2013-05-23 20:03:00,
2013-05-23 15:08:00,62.1,38.6,30.25,North,0,0.0,0.0,42,0.00,,,0.00,WUHU21623XXSP,2013-05-23 20:08:00,
2013-05-23 15:13:00,62.2,38.8,30.25,North,0,0.0,0.0,42,0.00,,,0.00,WUHU21623XXSP,2013-05-23 20:13:00,
2013-05-23 15:18:00,62.4,38.4,30.25,North,0,0.0,0.0,41,0.00,,,0.00,WUHU21623XXSP,2013-05-23 20:18:00,
2013-05-23 15:23:00,62.6,38.5,30.25,North,0,0.0,0.0,41,0.00,,,0.00,WUHU21623XXSP,2013-05-23 20:23:00,
2013-05-23 15:28:00,62.6,39.1,30.25,North,0,0.0,0.0,42,0.00,,,0.00,WUHU21623XXSP,2013-05-23 20:28:00,
2013-05-23 15:33:00,63.0,40.6,30.25,North,0,0.0,0.0,44,0.00,,,0.00,WUHU21623XXSP,2013-05-23 20:33:00,
2013-05-23 15:38:00,63.3,39.7,30.25,North,0,0.0,0.0,42,0.00,,,0.00,WUHU21623XXSP,2013-05-23 20:38:00,
2013-05-23 15:43:00,63.7,40.1,30.25,North,0,0.0,0.0,42,0.00,,,0.00,WUHU21623XXSP,2013-05-23 20:43:00,
2013-05-23 15:48:00,63.7,39.5,30.25,North,0,0.0,0.0,41,0.00,,,0.00,WUHU21623XXSP,2013-05-23 20:48:00,
2013-05-23 15:53:00,63.7,39.5,30.25,North,0,0.0,0.0,41,0.00,,,0.00,WUHU21623XXSP,2013-05-23 20:53:00,
2013-05-23 15:58:00,63.7,38.9,30.25,North,0,0.0,0.0,40,0.00,,,0.00,WUHU21623XXSP,2013-05-23 20:58:00,
2013-05-23 16:03:00,63.7,38.2,30.25,North,0,0.0,0.0,39,0.00,,,0.00,WUHU21623XXSP,2013-05-23 21:03:00,
2013-05-23 16:08:00,63.7,39.5,30.25,North,0,0.0,0.0,41,0.00,,,0.00,WUHU21623XXSP,2013-05-23 21:08:00,
2013-05-23 16:13:00,63.9,39.1,30.25,North,0,0.0,0.0,40,0.00,,,0.00,WUHU21623XXSP,2013-05-23 21:13:00,
2013-05-23 16:18:00,64.0,38.5,30.25,North,0,0.0,0.0,39,0.00,,,0.00,WUHU21623XXSP,2013-05-23 21:18:00,
2013-05-23 16:23:00,64.2,38.7,30.25,North,0,0.0,0.0,39,0.00,,,0.00,WUHU21623XXSP,2013-05-23 21:23:00,
2013-05-23 16:28:00,64.8,39.2,30.25,North,0,0.0,0.0,39,0.00,,,0.00,WUHU21623XXSP,2013-05-23 21:28:00,
2013-05-23 16:33:00,65.1,38.8,30.25,North,0,0.0,0.0,38,0.00,,,0.00,WUHU21623XXSP,2013-05-23 21:33:00,
2013-05-23 16:38:00,65.1,38.8,30.25,North,0,0.0,0.0,38,0.00,,,0.00,WUHU21623XXSP,2013-05-23 21:38:00,
2013-05-23 16:43:00,65.1,38.8,30.25,North,0,0.0,0.0,38,0.00,,,0.00,WUHU21623XXSP,2013-05-23 21:43:00,
2013-05-23 16:48:00,65.3,38.9,30.25,North,0,0.0,0.0,38,0.00,,,0.00,WUHU21623XXSP,2013-05-23 21:48:00,
2013-05-23 16:53:00,65.3,38.9,30.25,North,0,0.0,0.0,38,0.00,,,0.00,WUHU21623XXSP,2013-05-23 21:53:00,
2013-05-23 16:58:00,65.3,38.2,30.25,North,0,0.0,0.0,37,0.00,,,0.00,WUHU21623XXSP,2013-05-23 21:58:00,
2013-05-23 17:03:00,65.8,39.4,30.24,North,0,0.0,0.0,38,0.00,,,0.00,WUHU21623XXSP,2013-05-23 22:03:00,
2013-05-23 17:08:00,66.0,38.9,30.25,North,0,0.0,0.0,37,0.00,,,0.00,WUHU21623XXSP,2013-05-23 22:08:00,
2013-05-23 17:13:00,66.0,38.9,30.24,North,0,0.0,0.0,37,0.00,,,0.00,WUHU21623XXSP,2013-05-23 22:13:00,
2013-05-23 17:18:00,66.4,39.2,30.24,North,0,0.0,0.0,37,0.00,,,0.00,WUHU21623XXSP,2013-05-23 22:18:00,
2013-05-23 17:23:00,66.7,39.5,30.25,North,0,0.0,0.0,37,0.00,,,0.00,WUHU21623XXSP,2013-05-23 22:23:00,
2013-05-23 17:28:00,66.7,38.8,30.25,North,0,0.0,0.0,36,0.00,,,0.00,WUHU21623XXSP,2013-05-23 22:28:00,
2013-05-23 17:33:00,66.7,38.8,30.26,North,0,0.0,0.0,36,0.00,,,0.00,WUHU21623XXSP,2013-05-23 22:33:00,
2013-05-23 17:38:00,66.7,38.8,30.25,North,0,0.0,0.0,36,0.00,,,0.00,WUHU21623XXSP,2013-05-23 22:38:00,
2013-05-23 17:43:00,66.7,38.8,30.25,North,0,0.0,0.0,36,0.00,,,0.00,WUHU21623XXSP,2013-05-23 22:43:00,
2013-05-23 17:48:00,66.9,38.9,30.25,North,0,0.0,0.0,36,0.00,,,0.00,WUHU21623XXSP,2013-05-23 22:48:00,
2013-05-23 17:53:00,67.3,39.2,30.25,North,0,0.0,0.0,36,0.00,,,0.00,WUHU21623XXSP,2013-05-23 22:53:00,
2013-05-23 17:58:00,67.6,38.8,30.25,North,0,0.0,0.0,35,0.00,,,0.00,WUHU21623XXSP,2013-05-23 22:58:00,
2013-05-23 18:03:00,67.6,39.5,30.25,North,0,0.0,0.0,36,0.00,,,0.00,WUHU21623XXSP,2013-05-23 23:03:00,
2013-05-23 18:08:00,67.8,38.9,30.25,North,0,0.0,0.0,35,0.00,,,0.00,WUHU21623XXSP,2013-05-23 23:08:00,
2013-05-23 18:13:00,68.4,38.7,30.25,North,0,0.0,0.0,34,0.00,,,0.00,WUHU21623XXSP,2013-05-23 23:13:00,
2013-05-23 18:18:00,68.7,38.3,30.25,North,0,0.0,0.0,33,0.00,,,0.00,WUHU21623XXSP,2013-05-23 23:18:00,
2013-05-23 18:23:00,68.9,37.7,30.26,North,0,0.0,0.0,32,0.00,,,0.00,WUHU21623XXSP,2013-05-23 23:23:00,
2013-05-23 18:28:00,69.1,37.1,30.25,North,0,0.0,0.0,31,0.00,,,0.00,WUHU21623XXSP,2013-05-23 23:28:00,
2013-05-23 18:33:00,68.9,36.2,30.26,North,0,0.0,0.0,30,0.00,,,0.00,WUHU21623XXSP,2013-05-23 23:33:00,
2013-05-23 18:38:00,69.1,37.1,30.25,North,0,0.0,0.0,31,0.00,,,0.00,WUHU21623XXSP,2013-05-23 23:38:00,
2013-05-23 18:43:00,69.4,36.7,30.26,North,0,0.0,0.0,30,0.00,,,0.00,WUHU21623XXSP,2013-05-23 23:43:00,
2013-05-23 18:48:00,69.4,36.7,30.26,North,0,0.0,0.0,30,0.00,,,0.00,WUHU21623XXSP,2013-05-23 23:48:00,
2013-05-23 18:53:00,69.6,37.6,30.26,North,0,0.0,0.0,31,0.00,,,0.00,WUHU21623XXSP,2013-05-23 23:53:00,
2013-05-23 18:58:00,69.8,37.8,30.26,North,0,0.0,0.0,31,0.00,,,0.00,WUHU21623XXSP,2013-05-23 23:58:00,
2013-05-23 19:03:00,70.2,37.4,30.26,North,0,0.0,0.0,30,0.00,,,0.00,WUHU21623XXSP,2013-05-24 00:03:00,
2013-05-23 19:08:00,70.2,37.4,30.26,North,0,0.0,0.0,30,0.00,,,0.00,WUHU21623XXSP,2013-05-24 00:08:00,
2013-05-23 19:13:00,70.2,37.4,30.26,North,0,0.0,0.0,30,0.00,,,0.00,WUHU21623XXSP,2013-05-24 00:13:00,
2013-05-23 19:18:00,70.3,37.5,30.26,North,0,0.0,0.0,30,0.00,,,0.00,WUHU21623XXSP,2013-05-24 00:18:00,
2013-05-23 19:23:00,70.3,37.5,30.26,North,0,0.0,0.0,30,0.00,,,0.00,WUHU21623XXSP,2013-05-24 00:23:00,
2013-05-23 19:28:00,70.5,37.7,30.26,North,0,0.0,0.0,30,0.00,,,0.00,WUHU21623XXSP,2013-05-24 00:28:00,
2013-05-23 19:33:00,70.5,38.4,30.25,North,0,0.0,0.0,31,0.00,,,0.00,WUHU21623XXSP,2013-05-24 00:33:00,
2013-05-23 19:38:00,70.9,38.8,30.26,North,0,0.0,0.0,31,0.00,,,0.00,WUHU21623XXSP,2013-05-24 00:38:00,
2013-05-23 19:43:00,70.9,38.0,30.26,North,0,0.0,0.0,30,0.00,,,0.00,WUHU21623XXSP,2013-05-24 00:43:00,
2013-05-23 19:48:00,70.5,37.7,30.26,North,0,0.0,0.0,30,0.00,,,0.00,WUHU21623XXSP,2013-05-24 00:48:00,
2013-05-23 19:53:00,70.3,38.3,30.25,North,0,0.0,0.0,31,0.00,,,0.00,WUHU21623XXSP,2013-05-24 00:53:00,
2013-05-23 19:58:00,70.3,38.3,30.26,North,0,0.0,0.0,31,0.00,,,0.00,WUHU21623XXSP,2013-05-24 00:58:00,
2013-05-23 20:03:00,70.0,37.2,30.25,North,0,0.0,0.0,30,0.00,,,0.00,WUHU21623XXSP,2013-05-24 01:03:00,
2013-05-23 20:08:00,69.4,37.5,30.26,North,0,0.0,0.0,31,0.00,,,0.00,WUHU21623XXSP,2013-05-24 01:08:00,
2013-05-23 20:13:00,68.4,36.5,30.26,North,0,0.0,0.0,31,0.00,,,0.00,WUHU21623XXSP,2013-05-24 01:13:00,
2013-05-23 20:18:00,67.6,35.9,30.26,North,0,0.0,0.0,31,0.00,,,0.00,WUHU21623XXSP,2013-05-24 01:18:00,
2013-05-23 20:24:00,66.7,35.9,30.26,North,0,0.0,0.0,32,0.00,,,0.00,WUHU21623XXSP,2013-05-24 01:24:00,
2013-05-23 20:29:00,65.1,35.2,30.26,North,0,0.0,0.0,33,0.00,,,0.00,WUHU21623XXSP,2013-05-24 01:29:00,
2013-05-23 20:34:00,64.2,34.4,30.26,North,0,0.0,0.0,33,0.00,,,0.00,WUHU21623XXSP,2013-05-24 01:34:00,
2013-05-23 20:39:00,63.1,34.1,30.26,North,0,0.0,0.0,34,0.00,,,0.00,WUHU21623XXSP,2013-05-24 01:39:00,
2013-05-23 20:44:00,62.1,33.9,30.27,North,0,0.0,0.0,35,0.00,,,0.00,WUHU21623XXSP,2013-05-24 01:44:00,
2013-05-23 20:49:00,61.3,33.2,30.27,North,0,0.0,0.0,35,0.00,,,0.00,WUHU21623XXSP,2013-05-24 01:49:00,
2013-05-23 20:54:00,60.6,33.3,30.27,North,0,0.0,0.0,36,0.00,,,0.00,WUHU21623XXSP,2013-05-24 01:54:00,
2013-05-23 20:59:00,59.9,33.5,30.27,North,0,0.0,0.0,37,0.00,,,0.00,WUHU21623XXSP,2013-05-24 01:59:00,
2013-05-23 21:04:00,59.5,33.1,30.27,North,0,0.0,0.0,37,0.00,,,0.00,WUHU21623XXSP,2013-05-24 02:04:00,
2013-05-23 21:09:00,58.8,33.1,30.27,North,0,0.0,0.0,38,0.00,,,0.00,WUHU21623XXSP,2013-05-24 02:09:00,
2013-05-23 21:14:00,58.3,33.4,30.27,North,0,0.0,0.0,39,0.00,,,0.00,WUHU21623XXSP,2013-05-24 02:14:00,
2013-05-23 21:19:00,57.9,33.0,30.27,North,0,0.0,0.0,39,0.00,,,0.00,WUHU21623XXSP,2013-05-24 02:19:00,
2013-05-23 21:24:00,57.4,33.2,30.27,North,0,0.0,0.0,40,0.00,,,0.00,WUHU21623XXSP,2013-05-24 02:24:00,
2013-05-23 21:29:00,57.0,32.9,30.28,North,0,0.0,0.0,40,0.00,,,0.00,WUHU21623XXSP,2013-05-24 02:29:00,
2013-05-23 21:34:00,56.5,33.0,30.28,North,0,0.0,0.0,41,0.00,,,0.00,WUHU21623XXSP,2013-05-24 02:34:00,
2013-05-23 21:39:00,56.3,32.8,30.28,North,0,0.0,0.0,41,0.00,,,0.00,WUHU21623XXSP,2013-05-24 02:39:00,
2013-05-23 21:44:00,55.9,32.5,30.28,North,0,0.0,0.0,41,0.00,,,0.00,WUHU21623XXSP,2013-05-24 02:44:00,
2013-05-23 21:49:00,55.8,32.9,30.28,North,0,0.0,0.0,42,0.00,,,0.00,WUHU21623XXSP,2013-05-24 02:49:00,
2013-05-23 21:54:00,55.4,32.6,30.28,North,0,0.0,0.0,42,0.00,,,0.00,WUHU21623XXSP,2013-05-24 02:54:00,
2013-05-23 21:59:00,55.2,32.4,30.29,North,0,0.0,0.0,42,0.00,,,0.00,WUHU21623XXSP,2013-05-24 02:59:00,
2013-05-23 22:04:00,55.0,32.3,30.29,North,0,0.0,0.0,42,0.00,,,0.00,WUHU21623XXSP,2013-05-24 03:04:00,
2013-05-23 22:09:00,54.7,31.9,30.29,North,0,0.0,0.0,42,0.00,,,0.00,WUHU21623XXSP,2013-05-24 03:09:00,
2013-05-23 22:14:00,54.3,32.2,30.29,North,0,0.0,0.0,43,0.00,,,0.00,WUHU21623XXSP,2013-05-24 03:14:00,
2013-05-23 22:19:00,54.3,32.2,30.29,North,0,0.0,0.0,43,0.00,,,0.00,WUHU21623XXSP,2013-05-24 03:19:00,
2013-05-23 22:24:00,54.0,32.4,30.30,North,0,0.0,0.0,44,0.00,,,0.00,WUHU21623XXSP,2013-05-24 03:24:00,
2013-05-23 22:29:00,53.8,32.8,30.30,North,0,0.0,0.0,45,0.00,,,0.00,WUHU21623XXSP,2013-05-24 03:29:00,
2013-05-23 22:34:00,53.4,33.0,30.30,North,0,0.0,0.0,46,0.00,,,0.00,WUHU21623XXSP,2013-05-24 03:34:00,
2013-05-23 22:39:00,53.2,32.9,30.30,North,0,0.0,0.0,46,0.00,,,0.00,WUHU21623XXSP,2013-05-24 03:39:00,
2013-05-23 22:44:00,52.9,32.5,30.30,North,0,0.0,0.0,46,0.00,,,0.00,WUHU21623XXSP,2013-05-24 03:44:00,
2013-05-23 22:49:00,52.7,32.9,30.30,North,0,0.0,0.0,47,0.00,,,0.00,WUHU21623XXSP,2013-05-24 03:49:00,
2013-05-23 22:54:00,52.5,33.3,30.31,North,0,0.0,0.0,48,0.00,,,0.00,WUHU21623XXSP,2013-05-24 03:54:00,
2013-05-23 22:59:00,52.3,33.2,30.30,North,0,0.0,0.0,48,0.00,,,0.00,WUHU21623XXSP,2013-05-24 03:59:00,
2013-05-23 23:01:00,52.3,33.2,30.30,North,0,0.0,0.0,48,0.00,,,0.00,WUHU21623XXSP,2013-05-24 04:01:00,
2013-05-23 23:06:00,52.2,32.5,30.31,North,0,0.0,0.0,47,0.00,,,0.00,WUHU21623XXSP,2013-05-24 04:06:00,
2013-05-23 23:11:00,51.8,32.3,30.31,North,0,0.0,0.0,47,0.00,,,0.00,WUHU21623XXSP,2013-05-24 04:11:00,
2013-05-23 23:16:00,51.6,32.0,30.31,North,0,0.0,0.0,47,0.00,,,0.00,WUHU21623XXSP,2013-05-24 04:16:00,
2013-05-23 23:21:00,51.6,32.5,30.32,North,0,0.0,0.0,48,0.00,,,0.00,WUHU21623XXSP,2013-05-24 04:21:00,
2013-05-23 23:26:00,51.4,32.4,30.31,North,0,0.0,0.0,48,0.00,,,0.00,WUHU21623XXSP,2013-05-24 04:26:00,
2013-05-23 23:31:00,51.3,32.2,30.31,North,0,0.0,0.0,48,0.00,,,0.00,WUHU21623XXSP,2013-05-24 04:31:00,
2013-05-23 23:36:00,51.1,32.0,30.32,North,0,0.0,0.0,48,0.00,,,0.00,WUHU21623XXSP,2013-05-24 04:36:00,
2013-05-23 23:41:00,50.9,31.9,30.32,North,0,0.0,0.0,48,0.00,,,0.00,WUHU21623XXSP,2013-05-24 04:41:00,
2013-05-23 23:46:00,50.9,31.9,30.32,North,0,0.0,0.0,48,0.00,,,0.00,WUHU21623XXSP,2013-05-24 04:46:00,
2013-05-23 23:51:00,50.7,31.7,30.32,North,0,0.0,0.0,48,0.00,,,0.00,WUHU21623XXSP,2013-05-24 04:51:00,
2013-05-23 23:56:00,50.5,31.6,30.32,North,0,0.0,0.0,48,0.00,,,0.00,WUHU21623XXSP,2013-05-24 04:56:00,